Weather History for Grand Island, NE

Change the Weather History Date:

Tuesday, February 19, 2013

  Actual Average Record
Temperature  
Mean Temperature 22 °F 30 °F  
Max Temperature 30 °F 41 °F 72 °F (1930)
Min Temperature 14 °F 20 °F -15 °F (1936)
Degree Days  
Heating Degree Days 43 35  
Month to date heating degree days 574 707  
Since 1 July heating degree days 4089 4463  
Cooling Degree Days 0 0  
Month to date cooling degree days 0 0  
Year to date cooling degree days 0 0  
Moisture  
Dew Point 6 °F    
Average Humidity 52    
Maximum Humidity 80    
Minimum Humidity 23    
Precipitation  
Precipitation 0.00 in 0.02 in 0.57 in (1954)
Month to date precipitation 0.09 0.41  
Year to date precipitation 0.25 0.94  
Snow  
Snow 0.00 in 0.20 in 4.70 in (1989)
Month to date snowfall T 4.5  
Since 1 July snowfall 10.4 20.3  
Snow Depth 0.00 in    
Sea Level Pressure  
Sea Level Pressure 30.32 in    
Wind  
Wind Speed 11 mph (North)    
Max Wind Speed 25 mph    
Max Gust Speed 31 mph    
Visibility 10 miles    
Events      
T = Trace of Precipitation, MM = Missing Value Source: NWS Daily Summary

Daily Weather History Graph

Daily Weather History Graph

Search for Another Location

Airport:

Trip Planner

Search our weather history database for the weather conditions in past years. The results will help you decide how hot, cold, wet, or windy it might be!

Date:

Astronomy

Feb. 19, 2013 Rise Set
Actual Time 7:21 AM CST 6:12 PM CST
Civil Twilight 6:53 AM CST 6:40 PM CST
Nautical Twilight 6:21 AM CST 7:12 PM CST
Astronomical Twilight 5:50 AM CST 7:44 PM CST
Moon 12:44 PM CST (2/19) 2:56 AM CST (2/19)
Length of Visible Light 11h 47m
Length of Day
10h 51m
Waxing Gibbous, 67% of the Moon is Illuminated
Feb 19
Waxing Gibbous
Feb 25
Full
Mar 4
Last Quarter
Mar 11
New
Mar 19
First Quarter

Hourly Weather History & Observations

Time (CST) Temp. Windchill Dew Point Humidity Pressure Visibility Wind Dir Wind Speed Gust Speed Precip Events Conditions
12:53 AM 23.0 °F 12.4 °F 16.0 °F 74% 30.20 in 10.0 mi NW 10.4 mph - N/A   Clear
1:53 AM 21.9 °F 7.3 °F 12.9 °F 68% 30.22 in 10.0 mi NNW 18.4 mph 24.2 mph N/A   Clear
2:53 AM 21.0 °F 9.3 °F 12.9 °F 71% 30.23 in 10.0 mi NNW 11.5 mph - N/A   Clear
3:53 AM 19.0 °F 6.8 °F 12.9 °F 77% 30.23 in 10.0 mi NNW 11.5 mph - N/A   Clear
4:53 AM 19.0 °F 3.6 °F 12.0 °F 74% 30.25 in 10.0 mi NNW 18.4 mph 31.1 mph N/A   Clear
5:53 AM 17.1 °F 2.5 °F 10.9 °F 77% 30.28 in 10.0 mi NNW 15.0 mph - N/A   Clear
6:53 AM 16.0 °F 4.4 °F 10.9 °F 81% 30.32 in 10.0 mi NW 9.2 mph - N/A   Clear
7:53 AM 16.0 °F 6.3 °F 10.0 °F 77% 30.35 in 10.0 mi NNW 6.9 mph - N/A   Clear
8:23 AM 17.6 °F 5.0 °F 10.4 °F 73% 30.28 in 10.0 mi NNW 11.5 mph - N/A   Mostly Cloudy
8:53 AM 17.1 °F 2.5 °F 10.0 °F 74% 30.37 in 10.0 mi North 15.0 mph - N/A   Scattered Clouds
9:53 AM 19.0 °F 3.2 °F 7.0 °F 59% 30.40 in 10.0 mi North 19.6 mph - N/A   Clear
10:53 AM 21.0 °F 5.7 °F 3.9 °F 48% 30.39 in 10.0 mi North 19.6 mph - N/A   Clear
12:53 PM 26.1 °F 16.2 °F 3.0 °F 37% 30.38 in 10.0 mi North 10.4 mph - N/A   Clear
1:53 PM 27.0 °F 18.0 °F 1.0 °F 33% 30.36 in 10.0 mi NNE 9.2 mph 19.6 mph N/A   Clear
2:53 PM 28.9 °F 22.8 °F -2.0 °F 26% 30.34 in 10.0 mi Variable 5.8 mph 16.1 mph N/A   Clear
3:53 PM 28.9 °F 21.9 °F -2.9 °F 25% 30.34 in 10.0 mi ENE 6.9 mph - N/A   Clear
4:53 PM 28.0 °F 20.8 °F -6.0 °F 23% 30.33 in 10.0 mi NE 6.9 mph - N/A   Clear
6:53 PM 19.9 °F 11.1 °F 3.9 °F 50% 30.34 in 10.0 mi ENE 6.9 mph - N/A   Clear
7:53 PM 19.9 °F 9.3 °F 1.9 °F 46% 30.34 in 10.0 mi ENE 9.2 mph - N/A   Clear
8:53 PM 18.0 °F 6.9 °F 1.9 °F 50% 30.38 in 10.0 mi ENE 9.2 mph - N/A   Clear
9:53 PM 16.0 °F 5.3 °F 1.9 °F 54% 30.38 in 10.0 mi ENE 8.1 mph - N/A   Clear
10:53 PM 15.1 °F 4.2 °F 3.0 °F 59% 30.38 in 10.0 mi ENE 8.1 mph - N/A   Clear
11:53 PM 15.8 °F 7.2 °F 3.2 °F 58% 30.31 in 10.0 mi East 5.8 mph - N/A   Clear